Regional Weather Roundup
Issued by NWS

Home | Current Version | Previous Version | Graphics & Text | Print | Product List | Glossary On
Versions: 1 2 3 4 5 6 7 8 9 10 11 12 13 14 15 16 17 18 19 20 21 22 23 24 25 26 27 28 29 30 31 32 33 34 35 36 37 38 39 40 41 42 43 44 45 46 47 48 49 50
000
ASUS43 KLSX 221659
RWRMO

WEATHER SUMMARY FOR MISSOURI
NATIONAL WEATHER SERVICE SPRINGFIELD MO
1200 PM CDT WED MAR 22 2017

NOTE: "FAIR" INDICATES FEW OR NO CLOUDS BELOW 12,000 FEET WITH NO
       SIGNIFICANT WEATHER AND/OR OBSTRUCTIONS TO VISIBILITY.
       CURRENT SKY AND/OR WEATHER CONDITIONS ARE NOT AVAILABLE FOR
       CHILLICOTHE AND FARMINGTON.

MOZ001>031-035>038-043-044-053-054-221800-
...NORTHERN AND WESTERN MISSOURI...

CITY           SKY/WX    TMP DP  RH WIND       PRES   REMARKS
KANSAS CTY INT PTSUNNY   50  24  36 E15       30.37S
KANSAS C DTWN  SUNNY     52  25  35 SE7       30.36F
LEE`S SUMMIT   SUNNY     50  25  37 E14       30.36S
ST JOSEPH      SUNNY     49  25  39 E10       30.39F
CHILLICOTHE      N/A     43  27  53 E12G18    30.43F
KIRKSVILLE     CLOUDY    42  24  49 E17       30.46F

$$
MOZ066>068-077>081-088>096-101>105-221800-
...SOUTHWEST MISSOURI...

CITY           SKY/WX    TMP DP  RH WIND       PRES   REMARKS
SPRINGFIELD    SUNNY     54  28  36 E15G23    30.29F
JOPLIN         CLOUDY    53  28  38 SE16G22   30.27F
BRANSON        CLOUDY    46  36  66 SE9G16    30.32F

$$
MOZ032>034-039>042-045>050-055>058-069>072-221800-
...CENTRAL MISSOURI...

CITY           SKY/WX    TMP DP  RH WIND       PRES   REMARKS
COLUMBIA       CLOUDY    47  29  49 E14       30.40F
JEFFERSON CITY SUNNY     47  28  47 E14       30.42F
ROLLA          SUNNY     47  28  47 E15       30.38S
SEDALIA        CLOUDY    49  30  48 E13G23    30.37F
WARRENSBURG    MOSUNNY   50  28  43 E13G20    30.37R
OSAGE BEACH    SUNNY    N/A N/A N/A E13       30.38F

$$
MOZ051-052-059>065-221800-
...EAST CENTRAL MISSOURI...

CITY           SKY/WX    TMP DP  RH WIND       PRES   REMARKS
ST LOUIS INTL  PTSUNNY   45  21  38 E13       30.47F
SPIRIT OF STL  SUNNY     46  25  43 E14G21    30.46F
ST CHARLES     SUNNY     44  21  40 E9G16     30.49S

$$
MOZ072>076-082>087-097>100-106>115-221800-
...SOUTH CENTRAL AND SOUTHEAST MISSOURI...

CITY           SKY/WX    TMP DP  RH WIND       PRES   REMARKS
CAPE GIRARDEAU SUNNY     50  26  39 NE17G24   30.41F
FARMINGTON     SUNNY     46  28  49 NE14      30.41F
POPLAR BLUFF   MOSUNNY   50  33  52 NE16      30.39F
WEST PLAINS    SUNNY     53  33  46 E9        30.34F

$$




USA.gov is the U.S. government's official web portal to all federal, state and local government web resources and services.